Location: Unspecified
(44.0704°N, 0.0000°E)
Time: 09:06:44
(UTC+00:00)

OTV 5 (USA 277) - Visible Passes

Search period start: 19 June 2019 00:00
Search period end: 29 June 2019 00:00
Orbit: 310 x 325 km, 54.5° (Epoch: 08 May)

Date Brightness Start Highest point End Pass type
(mag) Time Alt. Az. Time Alt. Az. Time Alt. Az.
19 Jun ? 00:21:31 10° WNW 00:23:18 15° NNW 00:25:06 10° NNE visible
19 Jun ? 01:58:29 10° N 01:58:35 10° N 01:58:41 10° N visible
19 Jun ? 03:31:42 10° NNW 03:33:47 19° NNE 03:35:51 10° ENE visible
19 Jun ? 23:03:08 33° NW 23:03:25 34° NNW 23:05:59 10° NE visible
20 Jun ? 00:37:22 10° NNW 00:38:24 11° N 00:39:27 10° NNE visible
20 Jun ? 02:12:42 10° NNW 02:13:44 11° N 02:14:45 10° NNE visible
20 Jun ? 21:42:46 32° SSW 21:43:47 58° SE 21:46:32 10° ENE visible
20 Jun ? 23:16:15 10° WNW 23:18:21 19° NNW 23:20:27 10° NNE visible
21 Jun ? 00:53:22 10° N 00:53:33 10° N 00:53:43 10° N visible
21 Jun ? 02:27:02 10° NNW 02:28:49 15° NNE 02:30:35 10° ENE visible
21 Jun ? 20:23:01 10° SSE 20:24:30 14° SE 20:25:59 10° E visible
21 Jun ? 21:55:50 10° WSW 21:58:32 50° NNW 22:01:16 10° NE visible
21 Jun ? 23:31:58 10° NW 23:33:24 13° NNW 23:34:49 10° NNE visible
22 Jun ? 01:08:05 10° N 01:08:42 10° N 01:09:20 10° NNE visible
22 Jun ? 02:41:27 10° NNW 02:43:49 24° NNE 02:46:09 10° E visible
22 Jun ? 20:36:29 10° SSW 20:39:02 34° SE 20:41:35 10° ENE visible
22 Jun ? 22:11:04 10° W 22:13:25 24° NNW 22:15:47 10° NNE visible
22 Jun ? 23:47:54 10° NNW 23:48:31 11° N 23:49:09 10° N visible
23 Jun ? 01:22:25 10° NNW 01:23:50 13° NNE 01:25:15 10° NE visible
23 Jun ? 02:55:59 10° NW 02:58:42 51° NE 03:01:22 10° ESE visible
23 Jun ? 20:50:56 10° SW 20:53:42 82° NW 20:56:29 10° NE visible
23 Jun ? 22:26:38 10° WNW 22:28:25 15° NNW 22:30:11 10° NNE visible
24 Jun ? 00:03:29 10° N 00:03:41 10° N 00:03:53 10° N visible
24 Jun ? 01:36:47 10° NNW 01:38:52 19° NNE 01:40:58 10° ENE visible
24 Jun ? 03:10:43 10° WNW 03:13:26 57° SW 03:16:07 10° SE visible
24 Jun ? 21:05:57 10° W 21:08:30 33° NNW 21:11:05 10° NE visible
24 Jun ? 22:42:28 10° NNW 22:43:30 11° N 22:44:32 10° NNE visible
25 Jun ? 00:17:46 10° NNW 00:18:49 12° N 00:19:52 10° NNE visible
25 Jun ? 01:51:14 10° NW 01:53:49 34° NNE 01:56:22 10° E visible
25 Jun ? 03:25:51 10° W 03:28:01 21° SW 03:30:11 10° S visible
25 Jun ? 21:21:21 10° WNW 21:23:27 19° NNW 21:25:32 10° NNE visible
25 Jun ? 22:58:26 10° N 22:58:39 10° N 22:58:51 10° N visible
26 Jun ? 00:32:07 10° NNW 00:33:55 15° NNE 00:35:42 10° ENE visible
26 Jun ? 02:05:52 10° NW 02:08:38 84° NE 02:11:22 10° SE visible
26 Jun ? 21:37:05 10° NW 21:38:29 13° NNW 21:39:55 10° NNE visible
26 Jun ? 23:13:10 10° N 23:13:48 11° N 23:14:27 10° NNE visible
27 Jun ? 00:46:32 10° NNW 00:48:55 25° NNE 00:50:15 17° ENE visible
27 Jun ? 02:20:45 10° WNW 02:20:59 12° WNW 02:20:59 12° WNW visible
27 Jun ? 21:53:00 10° NNW 21:53:37 11° N 21:54:15 10° N visible
27 Jun ? 23:27:29 10° NNW 23:28:56 13° NNE 23:30:23 10° NE visible
28 Jun ? 01:01:04 10° NW 01:02:31 26° NNW 01:02:31 26° NNW visible
28 Jun ? 20:31:45 10° WNW 20:33:30 15° NNW 20:35:16 10° NNE visible
28 Jun ? 22:08:33 10° N 22:08:46 10° N 22:09:01 10° N visible
28 Jun ? 23:41:52 10° NNW 23:43:59 19° NNE 23:44:43 17° NE visible
